Date,TemperatureHighF,TemperatureAvgF,TemperatureLowF,DewpointHighF,DewpointAvgF,DewpointLowF,HumidityHigh,HumidityAvg,HumidityLow,PressureMaxIn,PressureMinIn,WindSpeedMaxMPH,WindSpeedAvgMPH,GustSpeedMaxMPH,PrecipitationSumIn
2013-1-1,48.7,46.7,44.6,44.4,38.3,30.4,96,74,52,30.11,29.92,10,3,14,0.16
2013-1-2,44.4,39.2,37.2,43.7,35.5,30.7,97,87,72,30.24,29.99,18,4,19,0.18
2013-1-3,39.4,36.0,30.7,30.7,26.1,19.8,87,68,47,30.28,30.19,14,3,15,0.00
2013-1-4,47.7,38.4,30.0,31.5,28.5,25.7,93,70,47,30.29,30.15,15,3,16,0.00
2013-1-5,48.9,39.9,32.2,34.9,29.2,24.3,81,66,48,30.41,30.23,14,2,15,0.00
2013-1-6,49.3,44.1,39.9,40.1,37.8,34.0,90,79,66,30.30,30.06,10,2,10,0.02
2013-1-7,47.8,42.5,36.0,38.7,33.7,29.5,90,72,50,30.48,30.15,26,4,27,0.00
2013-1-8,58.8,45.1,31.5,48.6,40.0,29.7,96,83,62,30.51,30.39,10,1,11,0.00
2013-1-9,68.7,55.0,39.7,53.8,48.0,38.5,97,79,54,30.45,30.30,13,2,14,0.00
2013-1-10,58.3,50.4,39.2,51.1,39.2,32.2,93,67,45,30.58,30.38,19,4,21,0.00
2013-1-11,60.4,51.7,38.1,59.5,48.9,35.8,98,90,80,30.52,30.13,14,2,14,0.02
2013-1-12,60.1,55.1,49.6,59.5,54.2,49.5,99,97,92,30.18,30.12,12,2,14,0.00
2013-1-13,65.5,55.0,46.0,61.2,53.9,45.9,99,96,86,30.18,30.07,11,2,11,0.01
2013-1-14,70.5,60.5,47.5,62.1,57.4,46.2,97,90,73,30.21,30.09,23,5,24,0.00
2013-1-15,49.6,46.0,44.1,49.1,45.3,43.3,99,97,94,30.27,30.11,24,7,27,0.11
2013-1-16,51.3,45.7,41.7,50.9,45.5,41.5,99,99,98,30.11,29.98,21,3,21,0.03
2013-1-17,47.5,43.2,35.1,47.1,42.9,34.7,99,99,98,30.12,29.97,33,8,34,0.68
2013-1-18,41.9,36.7,29.3,37.4,31.1,24.4,99,81,50,30.58,30.04,26,7,32,0.06
2013-1-19,56.7,42.7,28.9,41.9,33.5,25.5,93,72,43,30.56,30.15,13,2,16,0.00
2013-1-20,62.6,52.2,43.7,41.7,37.0,32.0,87,59,35,30.15,29.91,24,6,24,0.00
2013-1-21,56.5,48.0,40.1,43.0,34.4,25.7,80,60,42,30.12,29.82,20,4,20,0.00
2013-1-22,43.3,33.0,27.3,35.2,14.8,3.2,81,49,29,30.31,29.92,27,6,27,0.00
2013-1-23,34.3,28.7,22.8,17.4,8.8,2.1,68,44,28,30.41,30.15,19,4,20,0.00
2013-1-24,35.4,29.5,25.3,27.9,15.5,3.7,89,57,37,30.57,29.98,43,10,43,0.00
2013-1-25,31.5,26.4,22.5,25.5,17.4,6.6,94,70,44,30.57,30.13,13,2,14,0.00
2013-1-26,35.1,29.4,23.9,29.8,26.2,22.3,94,88,77,30.47,30.13,11,1,11,0.04
2013-1-27,36.9,32.8,28.6,29.1,22.7,18.5,90,67,49,30.63,30.46,19,4,20,0.05
2013-1-28,50.2,40.2,29.7,45.1,34.7,23.0,92,81,73,30.58,30.19,15,3,17,0.01
2013-1-29,71.4,56.8,48.6,55.9,50.8,45.0,94,81,58,30.19,30.09,15,5,18,0.00
2013-1-30,74.5,65.3,56.3,63.5,60.2,53.6,97,84,66,30.11,29.50,38,11,40,0.00
2013-1-31,69.3,52.2,39.4,63.9,36.4,21.0,97,57,32,30.02,29.33,47,11,47,0.31
2013-2-1,43.3,35.7,28.0,30.0,17.0,3.9,69,48,25,30.41,29.88,35,7,35,0.00
2013-2-2,41.2,32.5,23.4,25.5,14.8,7.5,70,50,27,30.45,30.05,16,2,18,0.00
2013-2-3,44.1,38.5,34.5,34.9,30.9,25.5,94,75,56,30.05,29.85,14,2,16,0.03
2013-2-4,45.1,38.0,31.6,30.2,23.8,19.9,69,57,38,30.18,29.97,15,4,16,0.00
2013-2-5,57.9,48.3,39.6,36.7,34.3,30.2,72,59,43,30.04,29.86,15,4,16,0.00
2013-2-6,50.5,44.9,39.4,38.5,36.1,33.8,89,72,60,30.35,29.96,19,3,19,0.00
2013-2-7,48.0,44.8,40.3,43.3,37.9,30.9,88,77,69,30.42,30.12,23,7,27,0.02
2013-2-8,50.4,46.0,43.0,48.7,43.6,31.6,99,92,64,30.12,29.61,57,13,61,0.92
2013-2-9,46.4,40.0,35.2,32.4,26.1,22.8,66,58,42,30.40,29.92,37,10,37,0.00
2013-2-10,48.2,39.9,32.0,39.6,28.6,17.8,86,65,45,30.53,30.34,12,3,13,0.00
2013-2-11,63.7,57.2,45.0,60.8,54.1,39.2,96,90,80,30.35,29.83,24,8,24,0.06
2013-2-12,61.9,54.7,48.2,55.9,38.9,29.1,82,57,31,30.03,29.83,22,4,22,0.00
2013-2-13,51.1,47.9,45.3,47.3,44.5,41.5,98,88,74,29.98,29.60,15,2,15,0.06
2013-2-14,49.5,42.7,39.2,44.8,36.8,33.4,95,81,58,30.12,29.74,23,5,28,0.00
2013-2-15,61.2,46.0,37.6,41.9,38.4,35.4,96,77,41,30.12,29.96,19,3,20,0.00
2013-2-16,46.2,38.4,32.4,38.3,35.1,31.6,98,88,70,29.99,29.78,36,10,36,0.31
2013-2-17,33.3,30.4,27.1,31.8,19.5,9.1,98,66,42,30.27,29.80,27,7,31,0.00
2013-2-18,45.9,34.2,23.7,28.2,15.9,8.6,70,49,28,30.45,30.27,18,4,20,0.00
2013-2-19,60.3,49.0,35.4,54.0,42.5,27.7,92,79,66,30.32,29.81,26,7,26,0.05
2013-2-20,48.9,42.8,35.4,41.9,23.6,15.4,81,49,27,30.16,29.89,21,5,23,0.00
2013-2-21,43.0,35.8,28.6,26.1,21.4,16.5,72,56,39,30.32,30.14,21,6,22,0.00
2013-2-22,44.6,39.1,35.2,43.5,32.1,22.1,96,77,57,30.40,30.17,19,5,21,0.03
2013-2-23,51.6,46.5,42.4,51.3,45.8,41.7,99,97,95,30.17,29.82,23,3,23,0.57
2013-2-24,56.5,46.2,39.4,46.9,41.7,30.4,99,85,58,30.09,29.78,35,5,39,0.06
2013-2-25,41.7,37.8,34.0,30.7,27.6,24.3,85,67,58,30.25,30.09,29,5,33,0.00
2013-2-26,63.0,48.4,34.2,62.6,46.1,30.0,99,92,82,30.22,29.56,34,6,37,0.75
2013-2-27,63.0,54.2,46.9,62.6,46.7,40.3,99,77,49,29.74,29.56,19,4,19,0.00
2013-2-28,50.7,45.8,41.0,42.3,36.9,29.1,89,72,53,29.79,29.65,19,4,20,0.00
2013-3-1,48.9,42.6,35.6,32.9,30.2,27.5,79,62,47,29.89,29.78,20,4,20,0.00
2013-3-2,42.3,39.2,34.7,30.6,27.5,24.3,73,63,54,29.91,29.83,17,5,18,0.00
2013-3-3,44.1,36.2,31.6,27.1,23.7,20.7,79,61,44,29.94,29.83,28,6,30,0.00
2013-3-4,46.6,38.0,31.1,25.3,20.9,17.2,67,51,32,30.08,29.93,26,6,26,0.00
2013-3-5,51.4,39.2,29.8,41.4,28.9,21.7,95,68,36,30.14,29.75,32,4,32,0.07
2013-3-6,48.6,41.4,36.5,48.4,40.1,34.0,99,95,79,29.87,29.32,58,15,60,0.41
2013-3-7,47.7,43.4,39.9,36.1,32.4,28.9,84,65,53,30.14,29.87,43,14,47,0.00
2013-3-8,47.1,43.2,37.9,34.2,30.4,26.6,72,61,52,30.21,30.09,39,14,39,0.00
2013-3-9,54.3,44.9,36.1,34.2,30.2,22.3,80,58,33,30.33,30.19,30,9,32,0.00
2013-3-10,55.6,44.1,34.2,44.8,37.0,25.0,97,77,38,30.36,30.30,15,3,16,0.00
2013-3-11,63.9,53.2,41.2,52.7,47.6,39.9,98,83,64,30.32,30.04,22,4,24,0.00
2013-3-12,67.1,58.8,48.7,63.1,55.8,41.9,97,90,76,30.04,29.74,30,7,33,0.50
2013-3-13,55.4,47.7,41.9,42.1,33.3,27.7,78,59,36,30.04,29.91,27,6,28,0.00
2013-3-14,50.5,42.4,35.4,30.6,21.7,18.1,59,44,28,30.20,30.04,29,7,30,0.00
2013-3-15,57.6,46.3,32.9,36.3,27.2,18.9,75,50,27,30.17,29.88,21,4,22,0.00
2013-3-16,73.8,56.8,48.7,54.0,47.1,35.8,97,71,48,29.91,29.62,40,-8,44,0.10
2013-3-17,53.2,42.0,38.8,52.3,39.5,34.5,97,91,84,30.27,29.82,22,8,25,0.00
2013-3-18,51.1,43.8,38.1,50.2,42.7,34.5,99,96,84,30.27,29.90,26,5,26,0.06
2013-3-19,64.8,51.0,43.0,47.7,42.8,18.3,99,78,25,29.95,29.77,19,4,21,0.02
2013-3-20,54.1,48.6,43.0,37.0,19.7,10.2,72,34,20,30.09,29.82,20,4,20,0.00
2013-3-21,43.0,38.4,34.0,35.4,28.7,14.9,81,69,44,29.95,29.70,38,8,39,0.00
2013-3-22,51.3,39.2,28.6,28.0,16.8,13.3,61,42,25,30.06,29.92,24,4,24,0.00
2013-3-23,55.0,41.9,31.8,36.3,28.9,20.7,84,61,34,30.08,29.94,16,2,17,0.00
2013-3-24,43.3,39.3,34.5,39.6,36.6,32.7,98,90,74,30.01,29.61,33,7,37,0.36
2013-3-25,45.5,40.7,36.7,41.7,36.6,33.3,98,86,66,29.75,29.46,25,6,28,0.07
2013-3-26,50.2,43.1,34.9,35.1,32.5,29.3,84,67,47,30.02,29.75,21,4,21,0.00
2013-3-27,52.5,44.7,36.3,32.7,29.1,23.5,77,56,33,30.16,30.02,19,5,23,0.00
2013-3-28,52.3,44.8,36.1,32.5,29.6,27.0,71,56,40,30.25,30.10,23,6,26,0.00
2013-3-29,56.7,47.1,38.3,37.2,32.0,29.1,76,57,36,30.30,30.18,21,4,23,0.00
2013-3-30,61.2,50.4,39.7,43.3,37.0,30.9,93,63,33,30.24,30.14,21,3,21,0.00
2013-3-31,66.6,56.4,48.0,57.4,49.1,38.5,94,77,61,30.18,29.80,17,3,17,0.19
2013-4-1,71.8,61.0,50.5,55.8,47.7,36.3,95,66,31,29.96,29.74,32,5,34,0.01
2013-4-2,55.2,47.9,43.3,38.7,30.4,21.6,80,52,30,30.15,29.96,22,5,24,0.00
2013-4-3,53.1,45.9,41.2,39.0,30.0,18.9,86,56,30,30.38,30.14,18,4,19,0.00
2013-4-4,48.4,43.3,38.3,41.9,30.5,22.1,96,62,45,30.43,30.00,21,5,23,0.28
2013-4-5,60.6,49.0,43.0,46.4,41.7,33.3,98,79,42,30.01,29.77,32,9,35,0.34
2013-4-6,49.5,45.7,38.7,40.5,35.4,20.7,90,68,35,30.35,30.01,28,6,32,0.00
2013-4-7,69.3,55.2,38.8,51.6,43.8,36.0,94,69,38,30.35,30.12,19,4,19,0.00
2013-4-8,78.8,66.3,55.0,59.4,55.1,51.1,89,69,44,30.17,30.03,18,6,19,0.00
2013-4-9,85.5,72.6,62.2,63.1,59.4,57.6,88,66,40,30.15,30.00,18,6,18,0.00
2013-4-10,89.2,75.6,63.9,64.0,60.8,57.4,81,62,39,30.05,29.88,19,6,19,0.00
2013-4-11,84.0,73.4,63.3,65.3,61.1,56.8,86,67,46,29.97,29.80,21,7,25,0.00
2013-4-12,76.8,71.3,68.2,70.2,67.1,64.9,94,87,77,29.83,29.61,24,8,28,0.30
2013-4-13,70.2,58.6,54.0,67.5,48.1,40.8,91,69,50,30.00,29.67,47,7,51,0.00
2013-4-14,71.8,59.4,49.5,52.5,45.9,36.0,94,65,30,30.16,30.00,18,4,19,0.00
2013-4-15,67.3,60.9,57.9,57.2,53.9,48.0,86,78,66,30.27,30.12,32,6,32,0.00
2013-4-16,72.0,64.5,59.7,58.8,56.8,54.5,90,77,61,30.32,30.23,18,5,19,0.00
2013-4-17,83.8,69.3,58.3,65.7,61.1,56.8,96,77,50,30.24,30.10,15,4,18,0.00
2013-4-18,77.4,68.6,61.3,63.0,61.1,59.2,95,78,56,30.25,30.09,21,4,25,0.00
2013-4-19,81.7,72.2,64.8,70.0,66.3,62.4,97,83,62,30.09,29.77,33,9,33,0.33
2013-4-20,65.7,56.0,48.9,64.4,49.1,40.5,96,79,56,30.29,29.80,28,6,35,0.31
2013-4-21,51.4,48.6,44.4,46.2,38.2,33.6,97,68,52,30.57,30.29,32,9,32,0.00
2013-4-22,52.5,48.2,44.1,48.4,44.8,34.2,98,88,67,30.53,30.29,37,14,41,0.12
2013-4-23,55.8,50.2,45.9,49.1,47.9,44.4,98,92,76,30.29,30.15,36,10,39,0.01
2013-4-24,74.5,59.7,44.4,60.1,53.6,43.3,98,82,58,30.19,29.95,23,5,23,0.00
2013-4-25,64.6,56.9,46.8,59.9,48.3,41.5,91,74,56,30.32,30.01,36,8,37,0.00
2013-4-26,66.4,54.2,41.4,51.4,43.4,36.3,97,70,34,30.43,30.30,22,3,22,0.00
2013-4-27,67.3,56.4,45.1,49.1,42.3,36.7,94,63,35,30.43,30.32,17,2,17,0.00
2013-4-28,65.5,56.7,44.2,57.9,48.0,42.1,95,74,49,30.33,30.15,20,3,23,0.04
2013-4-29,63.9,59.6,56.8,62.4,58.5,56.1,98,96,93,30.16,30.01,12,2,12,1.24
2013-4-30,64.2,58.6,56.1,59.9,57.3,55.6,99,96,84,30.17,30.03,21,6,23,0.01
2013-5-1,60.8,56.3,53.4,57.4,54.7,52.0,99,94,83,30.37,30.16,34,11,34,0.03
2013-5-2,62.6,56.2,52.0,54.3,52.0,49.1,96,86,74,30.39,30.30,29,9,29,0.00
2013-5-3,60.3,54.2,50.2,54.5,49.6,44.2,97,85,58,30.32,30.25,30,9,37,0.00
2013-5-4,57.6,52.5,49.5,52.3,49.6,47.1,97,90,81,30.27,30.16,32,11,35,0.01
2013-5-5,55.8,52.8,50.4,52.3,49.9,47.8,95,90,84,30.18,30.11,27,10,30,0.00
2013-5-6,72.1,62.2,53.8,62.6,58.2,52.3,99,87,67,30.12,29.97,25,7,28,0.00
2013-5-7,71.8,63.9,57.4,63.9,59.7,54.7,97,87,66,29.99,29.86,20,6,21,0.07
2013-5-8,72.7,62.5,55.8,62.2,57.9,54.1,96,86,53,30.03,29.93,17,3,19,0.14
2013-5-9,79.7,67.7,57.0,62.2,57.7,52.9,98,74,42,30.04,29.94,13,3,14,0.01
2013-5-10,86.4,74.1,62.1,63.5,60.0,57.0,86,64,38,30.06,29.94,18,5,18,0.00
2013-5-11,82.2,72.7,64.8,71.8,65.9,60.6,98,80,58,29.97,29.76,44,6,46,2.09
2013-5-12,72.9,65.1,55.9,66.7,58.5,47.1,98,81,48,30.01,29.74,22,4,23,0.08
2013-5-13,63.5,58.2,54.1,52.3,39.9,33.4,86,51,39,30.15,30.01,23,4,23,0.00
2013-5-14,66.4,56.5,45.0,51.6,41.0,28.8,87,59,27,30.23,30.12,16,3,20,0.00
2013-5-15,85.6,71.6,59.2,63.7,56.6,48.2,73,60,46,30.12,29.81,22,7,22,0.00
2013-5-16,89.8,78.5,69.8,65.1,61.4,56.3,78,58,34,29.91,29.81,20,5,23,0.00
2013-5-17,77.9,70.7,64.4,63.7,55.7,47.8,88,61,36,30.15,29.91,18,4,18,0.00
2013-5-18,71.6,66.6,59.0,67.1,62.2,56.3,97,86,73,30.23,30.13,22,5,24,0.42
2013-5-19,80.2,71.7,67.8,71.4,68.0,64.9,98,89,64,30.18,30.09,16,3,18,0.04
2013-5-20,81.3,72.3,67.6,71.2,68.2,66.2,96,87,66,30.15,30.03,20,3,22,0.16
2013-5-21,83.3,72.9,67.5,72.7,68.8,66.2,97,88,64,30.06,29.93,16,4,17,0.17
2013-5-22,84.0,75.3,67.6,70.9,68.4,65.8,95,80,59,30.01,29.92,20,7,22,0.00
2013-5-23,75.9,72.6,70.2,71.8,69.7,67.5,97,91,81,30.00,29.81,20,5,22,0.17
2013-5-24,73.8,63.2,53.4,67.5,57.7,40.6,98,83,58,30.12,29.76,37,8,43,0.25
2013-5-25,67.1,56.9,47.1,47.1,39.8,34.9,75,54,32,30.21,30.09,23,6,25,0.00
2013-5-26,74.1,61.0,50.7,52.9,44.6,34.9,85,58,27,30.25,30.14,15,3,16,0.00
2013-5-27,78.6,66.4,52.9,58.5,52.3,46.0,93,64,36,30.29,30.18,14,3,14,0.00
2013-5-28,83.7,73.0,62.8,66.4,61.8,57.4,88,70,49,30.26,30.13,19,6,20,0.00
2013-5-29,86.5,76.5,66.2,67.3,65.7,63.9,92,71,50,30.22,30.13,21,6,21,0.00
2013-5-30,89.2,77.1,66.6,72.0,67.3,62.2,92,73,42,30.27,30.15,16,4,16,0.00
2013-5-31,88.7,78.2,69.1,72.3,69.2,63.1,95,76,45,30.23,30.08,16,5,18,0.00
2013-6-1,89.2,79.1,69.6,72.3,69.6,67.1,94,75,50,30.14,29.99,17,5,18,0.00
2013-6-2,88.3,78.6,70.2,69.3,67.7,65.7,90,71,49,30.04,29.89,25,7,25,0.00
2013-6-3,78.4,74.2,70.2,73.2,70.3,67.3,95,88,77,29.93,29.83,22,6,22,0.01
2013-6-4,73.8,69.7,60.4,69.1,60.4,47.8,97,74,45,30.14,29.91,30,5,32,0.00
2013-6-5,76.3,66.4,55.8,62.2,55.6,47.5,97,71,40,30.17,30.09,19,3,19,0.00
2013-6-6,77.4,70.6,62.4,68.9,64.7,59.2,95,82,61,30.09,29.87,18,4,22,0.00
2013-6-7,82.6,74.5,70.2,76.6,71.9,68.7,98,92,76,29.87,29.46,30,7,35,0.66
2013-6-8,83.8,74.1,68.5,74.7,69.8,66.4,95,87,71,30.09,29.77,24,4,27,0.32
2013-6-9,80.6,73.6,67.1,74.3,69.1,65.7,97,87,66,30.18,30.09,18,3,19,0.00
2013-6-10,84.0,75.0,69.3,77.5,71.8,68.0,99,90,72,30.11,29.91,30,5,30,1.61
2013-6-11,84.6,76.6,70.0,71.2,69.1,66.2,98,79,55,29.93,29.80,14,6,23,0.62
2013-6-12,90.5,80.1,67.8,73.0,68.7,63.7,93,70,47,29.93,29.80,19,4,19,0.00
2013-6-13,95.4,81.3,69.6,77.0,72.1,65.1,92,76,48,29.83,29.48,46,6,51,0.20
2013-6-14,70.2,67.6,61.9,67.1,60.4,56.1,94,78,63,29.98,29.61,33,8,36,0.00
2013-6-15,82.9,71.8,60.3,68.0,61.5,55.8,90,72,44,30.09,29.98,15,3,16,0.00
2013-6-16,87.1,77.4,66.9,67.8,64.0,57.7,89,64,50,30.09,29.94,23,6,24,0.00
2013-6-17,86.7,75.6,71.1,73.4,68.6,65.7,93,79,61,30.03,29.93,16,5,16,0.13
2013-6-18,83.7,75.3,69.6,74.3,71.2,68.7,97,88,73,29.96,29.74,19,4,21,0.29
2013-6-19,72.9,68.5,65.1,68.7,64.7,61.9,97,88,76,30.15,29.79,19,6,20,0.29
2013-6-20,73.2,67.9,62.8,63.0,60.4,54.5,94,78,56,30.26,30.15,20,5,22,0.00
2013-6-21,76.1,68.8,65.1,68.7,65.6,62.1,96,90,77,30.27,30.23,19,6,20,0.10
2013-6-22,80.8,72.2,64.0,73.2,68.1,62.6,97,87,77,30.24,30.17,21,4,21,0.00
2013-6-23,88.0,78.6,72.0,75.2,72.4,70.5,97,83,59,30.20,30.10,19,5,20,0.00
2013-6-24,87.3,79.4,72.9,75.6,73.2,70.7,95,82,65,30.19,30.05,18,5,19,0.00
2013-6-25,90.9,81.3,72.3,76.1,72.9,69.4,95,77,59,30.09,29.92,17,5,17,0.00
2013-6-26,91.2,80.8,72.3,75.2,71.7,67.3,93,75,57,29.98,29.83,21,6,24,0.00
2013-6-27,90.7,79.0,70.3,76.5,71.8,68.2,94,79,59,29.88,29.68,24,6,27,0.04
2013-6-28,92.1,81.8,73.9,75.6,72.8,68.7,92,76,51,29.71,29.52,19,7,19,0.06
2013-6-29,85.5,75.8,70.2,75.2,71.7,67.8,96,87,69,29.75,29.55,18,4,19,0.19
2013-6-30,82.6,77.7,74.5,75.0,73.9,72.3,95,88,75,29.90,29.75,17,5,18,0.02
2013-7-1,82.8,77.7,75.4,76.1,74.3,72.9,95,90,78,30.06,29.89,21,6,24,0.04
2013-7-2,86.5,76.2,71.2,77.5,73.1,70.3,98,90,68,30.23,30.05,19,4,20,1.04
2013-7-3,86.9,78.6,71.8,79.0,75.1,71.2,98,89,73,30.27,30.20,14,4,15,0.39
2013-7-4,88.3,80.5,73.9,76.5,74.3,71.6,97,82,60,30.31,30.21,16,4,16,0.00
2013-7-5,91.8,81.8,73.6,78.1,74.1,71.8,97,79,57,30.29,30.15,14,4,14,0.00
2013-7-6,90.3,81.4,72.7,75.0,72.3,68.7,96,76,52,30.25,30.10,15,4,15,0.00
2013-7-7,89.4,81.1,72.5,74.7,72.1,70.0,94,75,55,30.17,30.02,16,4,16,0.00
2013-7-8,84.9,79.6,74.8,75.9,73.7,71.1,91,82,70,30.14,30.07,19,5,19,0.00
2013-7-9,88.0,80.3,74.1,76.3,74.1,70.7,96,82,64,30.16,30.04,17,4,17,0.00
2013-7-10,88.0,79.8,73.4,79.9,74.5,70.7,97,84,69,30.10,29.93,25,5,25,0.34
2013-7-11,87.1,76.2,71.8,76.3,72.7,70.3,98,90,66,29.97,29.88,26,4,27,2.15
2013-7-12,80.2,75.0,72.0,74.8,72.7,71.2,98,93,80,30.02,29.88,8,1,8,0.15
2013-7-13,86.7,78.9,71.4,77.9,74.6,70.9,98,87,71,30.26,30.02,21,3,21,0.55
2013-7-14,86.7,80.3,75.6,76.8,75.2,72.5,98,85,65,30.32,30.25,17,3,17,0.00
2013-7-15,89.2,80.6,71.6,77.0,74.0,71.1,98,82,61,30.32,30.20,10,2,14,0.00
2013-7-16,94.5,83.4,75.0,79.0,74.7,71.8,92,77,50,30.22,30.11,17,4,19,0.00
2013-7-17,90.9,82.9,75.0,77.2,74.7,71.6,95,78,57,30.18,30.08,14,3,16,0.00
2013-7-18,96.1,83.4,73.4,76.1,73.6,70.5,92,74,47,30.12,30.02,11,2,12,0.00
2013-7-19,91.8,83.7,75.2,78.4,75.4,73.0,93,77,60,30.07,29.94,19,4,21,0.00
2013-7-20,88.9,82.6,75.4,76.1,74.7,72.9,93,78,64,29.99,29.87,21,7,21,0.00
2013-7-21,90.3,82.3,74.5,77.0,74.3,71.6,92,78,59,29.96,29.85,18,5,18,0.00
2013-7-22,89.4,80.6,76.1,79.5,75.7,73.8,95,85,67,29.93,29.78,17,3,17,0.07
2013-7-23,88.5,81.1,75.4,75.7,74.5,73.0,95,81,62,29.81,29.66,17,5,19,0.00
2013-7-24,92.7,81.5,74.5,77.0,74.4,70.9,94,81,51,29.81,29.68,18,3,21,0.00
2013-7-25,77.0,72.6,69.3,74.5,69.2,66.6,95,89,84,30.00,29.80,29,9,29,0.00
2013-7-26,82.2,72.8,65.8,69.1,66.6,63.1,97,82,61,30.09,29.99,14,2,14,0.00
2013-7-27,84.4,74.5,64.9,69.3,65.3,60.8,96,75,51,30.08,29.95,19,2,19,0.00
2013-7-28,88.0,78.3,71.1,75.2,72.2,68.5,97,83,59,29.99,29.91,17,3,17,0.11
2013-7-29,83.7,77.3,72.0,75.0,71.4,67.8,97,83,62,30.15,29.98,17,3,20,0.11
2013-7-30,86.2,76.4,66.9,69.4,63.7,53.8,95,68,37,30.22,30.13,16,2,16,0.00
2013-7-31,84.0,76.1,69.6,70.9,67.0,61.3,93,75,50,30.16,30.03,14,2,15,0.00
2013-8-1,81.9,75.0,67.5,74.1,71.0,65.3,96,88,77,30.04,29.84,23,4,23,0.39
2013-8-2,88.3,77.6,67.6,77.5,71.8,65.7,98,83,63,29.99,29.86,15,3,16,0.21
2013-8-3,87.6,76.6,70.7,76.6,73.0,68.7,98,90,65,30.00,29.89,31,3,31,0.34
2013-8-4,80.2,74.2,67.6,73.4,66.5,58.3,99,79,50,30.01,29.86,26,5,26,0.01
2013-8-5,83.3,73.1,63.0,67.5,62.1,58.6,95,70,47,30.08,30.00,11,2,14,0.00
2013-8-6,71.6,69.2,66.7,68.2,65.7,62.1,96,89,74,30.12,30.02,16,3,17,0.25
2013-8-7,86.0,77.3,70.3,73.0,71.1,68.2,96,82,62,30.12,30.04,18,3,18,0.00
2013-8-8,86.4,78.4,72.3,76.1,73.8,70.9,96,86,67,30.09,30.01,16,3,16,0.00
2013-8-9,90.9,82.9,75.7,78.6,76.3,74.5,97,82,65,30.02,29.91,21,5,22,0.00
2013-8-10,90.1,82.2,77.0,78.4,76.5,74.7,93,84,66,30.03,29.93,28,4,28,0.00
2013-8-13,90.0,83.0,75.4,77.9,75.6,73.2,95,79,66,29.91,29.82,21,5,21,0.90
2013-8-14,75.9,72.3,64.0,74.5,62.3,53.1,97,72,50,30.15,29.82,28,7,29,0.01
2013-8-15,75.6,69.6,63.7,62.1,58.9,55.0,87,69,58,30.22,30.13,16,3,18,0.00
2013-8-16,73.8,71.0,66.6,67.8,61.4,57.2,96,72,61,30.23,30.15,20,5,22,0.11
2013-8-17,75.0,72.1,69.1,72.0,70.2,67.5,98,94,84,30.27,30.19,22,7,22,0.37
2013-8-18,81.0,73.7,69.3,74.3,71.2,66.2,99,92,76,30.26,30.13,25,5,25,0.53
2013-8-19,74.8,71.2,66.9,71.1,68.3,65.5,96,91,80,30.26,30.15,9,1,9,0.04
2013-8-20,80.8,73.8,68.0,72.7,70.2,67.3,99,89,74,30.25,30.17,9,1,9,0.00
2013-8-21,87.3,76.2,68.9,75.4,71.7,68.0,97,87,67,30.30,30.18,16,2,16,0.00
2013-8-22,89.6,79.8,72.7,75.4,73.2,71.6,97,81,59,30.20,30.02,12,2,12,0.00
2013-8-23,88.3,76.0,69.3,74.5,71.2,66.2,96,86,60,30.12,29.99,18,3,18,0.15
2013-8-24,77.5,72.2,66.0,69.1,65.7,61.9,92,80,67,30.38,30.11,26,6,27,0.20
2013-8-25,75.6,70.2,61.9,62.8,60.4,58.3,91,72,58,30.46,30.35,20,4,21,0.00
2013-8-26,83.1,68.5,57.6,62.8,58.2,50.2,97,73,33,30.39,30.17,8,1,10,0.00
2013-8-27,89.8,75.9,64.6,72.9,66.0,57.0,85,72,53,30.17,29.99,10,3,11,0.00
2013-8-28,84.6,77.2,72.1,77.4,73.1,70.5,96,87,75,30.01,29.91,18,3,22,0.27
2013-8-29,79.3,75.0,72.0,74.7,71.4,67.1,97,89,78,30.09,29.86,27,7,28,0.02
2013-8-30,84.2,74.4,67.3,71.4,68.7,66.0,97,83,62,30.13,30.04,14,2,15,0.00
2013-8-31,88.3,77.3,68.5,74.1,71.3,67.6,98,83,59,30.05,29.94,19,4,19,0.00
2013-9-1,90.3,79.2,73.4,77.2,74.0,71.6,97,85,63,29.99,29.88,17,4,18,0.06
2013-9-2,88.2,78.5,71.6,75.9,73.2,70.2,96,85,65,29.92,29.85,14,4,15,0.01
2013-9-3,88.9,75.3,68.4,77.0,72.4,65.5,98,91,65,30.00,29.86,24,2,24,0.66
2013-9-4,82.0,73.5,67.5,69.4,67.2,64.9,98,82,63,30.16,30.00,14,2,15,0.01
2013-9-5,88.5,75.7,66.7,73.2,68.7,64.8,98,81,51,30.16,30.08,12,1,14,0.00
2013-9-6,76.6,72.6,63.1,69.8,63.0,57.0,95,73,55,30.25,30.13,25,5,25,0.00
2013-9-7,79.9,68.8,59.2,63.0,59.1,57.0,95,73,47,30.22,30.06,17,2,17,0.00
2013-9-8,87.3,73.5,62.2,72.0,65.8,59.2,94,78,52,30.07,29.95,10,2,10,0.00
2013-9-9,82.4,75.6,70.5,72.9,70.7,68.7,97,86,67,30.25,30.06,17,4,17,0.00
2013-9-10,89.1,77.5,67.5,73.8,70.1,66.6,98,80,56,30.31,30.22,13,2,13,0.00
2013-9-11,90.9,78.4,70.3,73.4,71.2,68.9,95,80,55,30.28,30.15,14,3,15,0.00
2013-9-12,88.9,79.5,71.8,72.5,71.0,69.6,95,77,54,30.16,29.85,16,4,17,0.00
2013-9-13,79.7,75.2,71.1,72.3,66.9,56.8,96,77,57,29.93,29.76,21,5,24,0.00
2013-9-14,73.8,67.7,59.9,61.3,57.7,52.7,89,71,55,30.23,29.93,24,6,26,0.00
2013-9-15,77.0,66.2,55.6,60.6,57.6,54.1,96,76,53,30.32,30.22,18,2,19,0.00
2013-9-16,84.9,70.5,63.9,72.0,64.5,58.6,95,82,50,30.25,30.10,24,5,26,0.00
2013-9-17,68.4,64.8,59.4,61.2,57.2,50.4,88,77,64,30.42,30.25,29,8,31,0.00
2013-9-18,71.2,63.6,56.3,58.8,55.2,52.2,91,75,54,30.38,30.27,18,5,18,0.00
2013-9-19,72.9,63.7,53.8,57.4,55.2,52.3,96,76,51,30.29,30.18,16,2,16,0.00
2013-9-20,77.2,66.2,56.1,61.7,57.6,54.5,95,76,54,30.18,30.08,16,2,16,0.00
2013-9-21,82.0,69.6,57.9,71.8,65.0,56.5,96,86,62,30.08,29.82,16,2,17,0.12
2013-9-22,72.1,69.1,66.0,69.3,63.9,55.9,97,84,63,29.95,29.79,22,6,22,0.21
2013-9-23,67.6,61.5,53.4,57.0,52.4,49.1,94,73,62,30.16,29.95,25,7,25,0.00
2013-9-24,73.2,61.1,51.1,57.7,53.3,49.3,95,78,51,30.17,30.04,16,2,18,0.00
2013-9-25,73.8,63.2,54.3,60.6,56.4,52.3,95,80,58,30.05,29.96,14,-13,15,0.00
2013-9-26,72.7,66.2,59.5,62.6,59.5,57.7,95,80,61,30.11,29.95,20,4,22,0.00
2013-9-27,70.3,66.9,63.9,61.2,57.8,53.1,83,73,59,30.26,30.10,30,8,30,0.00
2013-9-28,70.9,66.3,64.0,61.7,59.4,55.4,87,78,70,30.30,30.22,29,5,30,0.00
2013-9-29,71.2,66.1,60.1,65.5,60.4,55.0,94,82,58,30.23,30.10,24,6,26,0.01
2013-9-30,71.4,64.7,59.2,60.8,58.2,52.0,94,80,55,30.14,30.06,19,4,23,0.00
2013-10-1,82.2,66.9,55.2,64.0,58.6,54.1,97,77,45,30.19,30.08,12,2,12,0.00
2013-10-2,84.4,70.7,60.6,65.5,62.1,58.1,92,76,48,30.18,30.11,14,2,14,0.00
2013-10-3,85.5,73.2,62.8,68.5,64.3,60.8,95,76,48,30.20,30.14,11,2,11,0.00
2013-10-4,86.2,74.7,66.0,69.3,66.1,64.2,95,77,49,30.19,30.10,12,3,14,0.00
2013-10-5,89.1,75.5,66.0,70.5,67.1,64.6,95,77,50,30.18,30.11,14,2,15,0.00
2013-10-6,85.3,74.7,66.9,71.6,68.2,65.3,96,82,54,30.16,30.07,17,4,18,0.00
2013-10-7,85.1,74.8,64.4,72.7,69.8,63.7,98,86,58,30.07,29.92,26,5,28,1.46
2013-10-8,65.7,63.8,61.2,63.7,56.6,52.2,98,77,65,30.27,30.07,31,13,38,0.00
2013-10-9,65.1,63.6,62.2,64.8,61.7,56.1,99,94,76,30.25,30.03,42,15,47,1.81
2013-10-10,74.7,69.1,64.9,72.1,68.4,64.6,99,97,91,30.03,29.89,37,11,39,0.30
2013-10-11,66.9,64.1,62.6,66.6,63.7,62.2,99,99,96,29.99,29.89,22,4,24,0.06
2013-10-12,73.2,67.0,64.2,70.2,65.9,63.9,99,96,89,30.14,29.96,14,2,14,0.08
2013-10-13,72.7,68.1,65.8,70.3,66.8,64.0,100,96,91,30.28,30.12,29,9,32,0.06
2013-10-14,68.0,66.0,63.0,64.9,62.7,59.9,93,89,83,30.30,30.24,30,12,33,0.00
2013-10-15,67.5,64.7,62.1,65.1,62.8,59.9,96,94,90,30.25,30.12,25,9,27,0.00
2013-10-16,71.6,66.7,62.4,65.1,63.4,61.0,98,90,73,30.14,30.03,16,5,16,0.00
2013-10-17,78.1,68.7,60.6,66.4,63.5,60.1,99,85,62,30.04,29.90,12,2,13,0.00
2013-10-18,71.1,65.2,57.9,66.7,56.8,51.1,89,75,58,30.11,29.91,21,4,22,0.00
2013-10-19,67.5,63.4,57.6,65.8,61.4,54.7,97,93,83,30.09,29.88,15,3,15,0.19
2013-10-20,66.0,57.6,46.8,64.4,48.8,37.8,96,74,46,30.20,29.91,25,5,25,0.00
2013-10-21,67.6,55.4,43.3,53.1,48.0,42.3,97,79,50,30.24,30.08,15,1,15,0.00
2013-10-22,65.7,59.0,53.2,58.6,54.7,49.1,95,86,75,30.11,29.89,9,2,10,0.00
2013-10-23,61.0,57.5,51.4,58.6,53.5,42.8,97,87,72,29.98,29.71,23,4,23,0.02
2013-10-24,57.0,49.8,42.8,42.4,38.0,32.7,91,66,41,30.22,29.98,13,3,25,0.00
2013-10-25,54.9,46.6,40.6,38.1,35.3,30.0,85,66,40,30.41,30.22,23,4,24,0.00
2013-10-26,61.9,49.5,37.9,43.5,38.4,35.4,94,68,42,30.41,30.12,22,2,22,0.00
2013-10-27,66.4,53.6,44.1,47.8,40.9,35.8,86,64,36,30.22,30.09,13,3,14,0.00
2013-10-28,66.2,56.6,48.6,53.2,50.0,46.4,94,80,57,30.34,30.22,12,2,13,0.00
2013-10-29,68.2,58.1,50.4,55.6,51.1,43.3,96,80,45,30.41,30.32,17,2,17,0.00
2013-10-30,72.1,61.8,52.5,60.3,55.4,51.1,97,81,60,30.41,30.25,13,2,13,0.00
2013-10-31,75.7,66.4,57.9,66.4,60.1,55.8,93,81,53,30.30,30.03,20,5,20,0.00
2013-11-1,76.6,71.0,67.1,68.0,66.0,64.0,97,85,68,30.05,29.75,26,8,26,0.55
2013-11-2,71.2,65.5,59.4,67.8,58.6,47.3,98,80,45,29.94,29.68,31,4,34,0.06
2013-11-3,60.1,55.0,50.7,48.6,41.6,27.3,70,61,40,30.43,29.93,29,9,32,0.00
2013-11-4,52.2,48.6,42.6,46.6,39.8,27.5,90,72,45,30.63,30.43,22,9,25,0.00
2013-11-5,62.6,56.6,49.5,52.9,50.5,46.0,94,81,66,30.61,30.52,21,4,22,0.00
2013-11-6,66.9,60.1,49.8,60.3,56.5,48.2,97,88,75,30.52,30.19,25,3,25,0.00
2013-11-7,66.7,62.0,52.0,64.2,58.7,39.7,98,90,63,30.21,29.93,29,4,29,0.44
2013-11-8,55.4,48.6,39.2,39.4,32.7,27.7,88,56,37,30.40,30.09,35,6,39,0.00
2013-11-9,58.5,47.0,35.4,42.4,36.7,31.5,93,70,39,30.47,30.21,18,2,20,0.00
2013-11-10,69.4,55.7,45.1,42.6,38.6,33.4,87,55,32,30.30,30.05,28,6,32,0.00
2013-11-11,58.6,49.7,43.0,42.1,37.4,32.2,87,64,47,30.40,30.20,29,3,29,0.00
2013-11-12,55.9,44.9,36.7,45.1,35.7,21.6,90,71,47,30.41,30.09,44,10,45,0.00
2013-11-13,42.1,37.9,31.6,26.2,24.1,21.0,78,58,47,30.54,30.40,41,9,41,0.00
2013-11-14,57.7,42.9,30.0,30.0,25.2,20.1,78,53,26,30.53,30.40,17,3,17,0.00
2013-11-15,64.0,51.9,38.7,50.0,37.2,27.1,76,58,34,30.44,30.31,18,3,18,0.00
2013-11-16,62.6,57.7,52.3,57.7,54.9,48.4,98,91,75,30.38,30.28,13,3,15,0.12
2013-11-17,72.7,59.3,51.4,65.5,57.7,50.9,99,95,75,30.31,29.97,14,2,18,0.01
2013-11-18,74.1,67.0,57.6,66.7,52.8,33.4,97,65,30,29.99,29.81,29,5,29,0.12
2013-11-19,59.7,49.1,45.0,35.8,33.5,31.3,68,55,40,30.38,29.94,32,10,34,0.00
2013-11-20,52.5,47.5,42.3,45.9,39.0,30.2,80,73,60,30.55,30.38,24,9,29,0.00
2013-11-21,59.7,55.4,49.8,55.2,51.5,44.2,97,87,78,30.55,30.47,16,3,17,0.00
2013-11-22,72.7,60.3,47.8,61.3,55.1,46.9,98,84,59,30.47,30.11,18,4,19,0.01
2013-11-23,64.6,52.6,40.8,61.5,44.4,25.9,96,74,47,30.18,30.07,27,6,32,0.04
2013-11-24,46.2,33.4,29.8,27.3,12.0,4.5,63,41,29,30.60,30.16,40,13,40,0.00
2013-11-25,40.6,33.3,26.4,28.8,18.2,10.8,71,54,35,30.69,30.47,18,2,18,0.00
2013-11-26,64.9,50.4,36.1,64.0,46.1,26.2,97,85,71,30.49,29.67,24,4,29,0.42
2013-11-27,67.6,49.3,38.1,66.7,47.4,33.3,98,93,78,30.10,29.50,33,10,36,0.64
2013-11-28,41.4,35.2,30.4,33.1,22.4,16.5,81,60,42,30.58,30.06,23,5,27,0.00
2013-11-29,44.8,36.9,28.6,32.0,27.9,24.8,90,71,53,30.73,30.56,27,5,27,0.00
2013-11-30,48.9,41.8,36.0,41.7,36.8,28.8,91,83,72,30.73,30.41,20,7,21,0.00
2013-12-1,56.5,44.4,37.8,45.3,41.2,37.0,98,89,56,30.43,30.09,13,-2,13,0.00
2013-12-2,54.9,43.8,33.6,47.3,40.2,32.7,98,88,62,30.11,29.90,14,2,15,0.00
2013-12-3,61.3,49.0,39.0,45.7,40.9,38.5,98,76,46,30.10,29.92,8,2,9,0.02
2013-12-4,63.0,55.2,47.5,58.1,51.2,39.7,98,87,69,30.19,30.09,9,1,10,0.05
2013-12-5,67.1,61.4,54.7,62.4,59.4,54.1,98,93,83,30.23,30.12,15,3,16,0.00
2013-12-6,78.6,69.9,50.2,67.1,64.1,48.6,94,82,63,30.14,30.03,27,8,29,0.00
2013-12-7,52.3,43.4,40.6,48.4,39.7,32.4,98,87,70,30.56,30.10,32,12,36,0.31
2013-12-8,43.5,39.8,36.5,43.3,37.2,30.9,99,91,69,30.56,30.30,26,9,29,0.47
2013-12-9,47.1,42.8,37.9,46.9,42.6,37.8,99,99,98,30.32,30.14,12,2,12,0.19
2013-12-10,47.1,41.2,35.6,46.8,40.6,34.5,99,98,92,30.36,29.98,28,5,31,0.48
2013-12-11,46.8,38.3,30.6,34.5,29.6,23.0,96,73,42,30.52,30.34,14,2,14,0.00
2013-12-12,38.8,34.6,28.9,31.6,26.6,23.0,85,72,61,30.48,30.32,34,5,34,0.00
2013-12-13,48.9,38.1,29.1,27.7,23.5,18.5,84,57,36,30.44,30.33,15,4,17,0.00
2013-12-14,60.6,48.1,38.1,60.1,41.9,26.2,98,80,59,30.42,29.76,21,4,27,1.09
2013-12-15,59.7,48.9,40.6,59.0,44.2,32.0,98,84,64,30.08,29.72,18,-7,20,0.02
2013-12-16,50.9,40.3,32.9,39.0,33.1,29.1,89,76,53,30.27,30.08,14,3,14,0.00
2013-12-17,60.6,48.5,40.8,43.5,40.7,37.9,90,76,49,30.24,29.94,30,4,35,0.00
2013-12-18,46.6,40.9,36.7,39.2,31.8,25.5,93,71,47,30.36,30.01,34,5,35,0.00
2013-12-19,60.4,46.8,34.9,32.9,29.2,25.0,77,53,28,30.38,30.28,22,5,22,0.00
2013-12-20,68.4,57.2,46.6,58.1,48.9,32.2,89,74,52,30.33,30.19,18,5,20,0.00
2013-12-21,72.7,63.8,55.4,64.4,59.3,53.8,95,86,66,30.24,30.13,20,6,22,0.00
2013-12-22,79.9,70.2,64.9,68.7,65.1,59.9,95,85,66,30.19,30.10,26,7,28,0.00
2013-12-23,73.8,64.8,43.3,69.4,62.3,42.8,98,92,79,30.22,30.06,38,10,40,0.57
2013-12-24,44.8,40.4,33.3,42.8,33.0,19.6,99,76,55,30.50,30.17,34,11,35,0.38
2013-12-25,36.3,31.5,28.6,28.0,22.4,15.1,92,70,50,30.63,30.46,21,5,24,0.00
2013-12-26,46.0,37.5,29.5,32.7,30.2,26.6,95,76,52,30.48,30.31,9,2,10,0.00
2013-12-27,51.1,39.4,31.3,38.1,31.0,26.4,94,74,41,30.53,30.42,15,2,15,0.00
2013-12-28,59.2,45.7,34.5,35.1,31.7,28.0,86,61,32,30.49,30.25,13,3,14,0.00
2013-12-29,64.9,54.1,45.5,64.4,50.7,35.2,98,89,59,30.25,29.65,31,7,33,0.81
2013-12-30,54.9,47.5,42.3,47.7,42.4,35.6,96,83,58,30.22,29.94,18,3,18,0.01
2013-12-31,49.8,42.5,36.3,36.0,31.8,26.6,87,67,44,30.42,30.19,18,4,20,0.00
2014-1-1,53.6,43.3,32.7,40.5,34.9,28.0,91,73,52,30.51,30.22,14,2,15,0.00
2014-1-2,48.0,45.7,42.4,42.8,39.5,36.1,97,79,67,30.25,29.53,12,2,16,0.27